Location: Bonny Doon Airfield
(37.0704°N, 122.1252°W)
Time: 07:44:00
(UTC-08:00)

Vanguard 1 Rocket - Pass Details

Date: 25 October 2017
Orbit: 655 x 4222 km, 34.3° (Epoch: 17 November)

Event Time Altitude Azimuth Distance (km) Brightness Sun altitude
Rises 07:23:14 0° 250° (WSW) 5,928 11.0 -1.4°
Reaches altitude 10° 07:27:58 10° 248° (WSW) 4,337 10.4 -0.5°
Maximum altitude 07:38:04 63° 171° (S) 1,281 8.4 1.5°
Drops below altitude 10° 07:43:38 10° 91° (E) 2,458 11.4 2.5°
Sets 07:45:38 0° 87° (E) 3,220 11.8 2.9°
